Location: Martley
(52.2333°N, 2.3667°W)
Time: 02:47:52
(UTC+00:00)

NOAA 12 - Pass Details

Date: 11 December 2019
Orbit: 795 x 815 km, 98.5° (Epoch: 26 January)

Event Time Altitude Azimuth Distance (km) Brightness Sun altitude
Rises 07:04:03 0° 15° (NNE) 3,322 7.2 -9.1°
Reaches altitude 10° 07:06:24 10° 17° (NNE) 2,385 6.5 -8.8°
Maximum altitude 07:11:41 82° 105° (ESE) 812 4.2 -8.1°
Drops below altitude 10° 07:16:55 10° 193° (SSW) 2,362 6.7 -7.4°
Sets 07:19:14 0° 195° (SSW) 3,287 7.5 -7.1°
